1485496801.09,1180,8.75,73950.0,-7.77,-38.97,-39.09,0,*69
1485496802.32,1181,8.75,73950.5,-7.79,-38.97,-39.15,0,*6B
1485496803.54,1182,8.81,73950.5,-7.79,-38.97,-39.15,0,*68
1485496804.79,1183,8.75,73946.3,-7.77,-38.79,-38.97,0,*6C
1485496806.02,1184,8.75,73946.0,-7.79,-38.85,-39.03,0,*6A
1485496807.25,1185,8.75,73950.3,-7.79,-38.79,-38.97,0,*64
1485496808.51,1186,8.75,73948.0,-7.77,-38.79,-39.09,0,*6F
1485496809.76,1187,8.75,73946.8,-7.77,-38.97,-39.15,0,*63
1485496810.98,1188,8.75,73950.5,-7.79,-38.97,-39.23,0,*67
1485496812.21,1189,8.75,73948.5,-7.79,-38.85,-39.03,0,*67
1485496813.43,1190,8.75,73944.3,-7.79,-38.97,-39.15,0,*6B
1485496814.66,1191,8.75,73946.5,-7.79,-38.85,-39.03,0,*6E
1485496815.89,1192,8.75,73950.3,-7.79,-38.85,-39.03,0,*6D
1485496817.13,1193,8.75,73948.0,-7.83,-39.03,-39.09,0,*6C
1485496818.38,1194,8.75,73950.3,-7.81,-38.67,-38.85,0,*6F
1485496819.66,1195,8.75,73948.8,-7.81,-38.67,-38.79,0,*6D
1485496820.94,1196,8.75,73946.8,-7.81,-38.67,-38.79,0,*6E
1485496822.22,1197,8.75,73944.5,-7.81,-38.67,-38.79,0,*6F
1485496823.45,1198,8.75,73950.8,-7.83,-38.73,-39.03,0,*6B
1485496824.7,1199,8.75,73948.0,-7.81,-38.97,-39.03,0,*62
1485496825.93,1200,8.75,73946.0,-7.83,-38.73,-38.91,0,*63
1485496827.19,1201,8.75,73950.3,-7.81,-38.61,-38.79,0,*65
1485496828.44,1202,8.75,73950.8,-7.81,-38.67,-38.97,0,*60
1485496829.68,1203,8.75,73952.0,-7.83,-38.85,-38.91,0,*69
1485496830.91,1204,8.75,73948.5,-7.83,-38.73,-38.91,0,*67
1485496832.14,1205,8.75,73948.3,-7.83,-38.73,-38.91,0,*66
1485496833.36,1206,8.75,73948.3,-7.83,-38.43,-38.55,0,*6E
1485496834.59,1207,8.75,73948.0,-7.83,-38.43,-38.67,0,*6E
1485496835.83,1208,8.75,73952.0,-7.83,-38.67,-38.85,0,*6B
1485496837.06,1209,8.75,73952.8,-7.83,-38.67,-38.85,0,*6A
1485496838.29,1210,8.75,73950.0,-7.83,-38.67,-38.85,0,*62
1485496839.51,1211,8.75,73950.3,-7.83,-38.55,-38.85,0,*62
1485496840.76,1212,8.81,73954.8,-7.81,-38.43,-38.67,0,*68
1485496841.97,1213,8.75,73948.0,-7.83,-38.73,-38.97,0,*67
1485496843.2,1214,8.75,73948.8,-7.83,-38.85,-39.03,0,*65
1485496844.44,1215,8.75,73952.3,-7.83,-38.67,-38.85,0,*67
1485496845.66,1216,8.75,73948.0,-7.83,-38.67,-38.73,0,*6D
1485496846.9,1217,8.75,73948.0,-7.83,-38.49,-38.73,0,*60
1485496848.13,1218,8.75,73948.5,-7.83,-38.73,-38.91,0,*6A
1485496849.38,1219,8.75,73948.0,-7.89,-38.67,-38.91,0,*64
1485496850.63,1220,8.75,73948.8,-7.85,-38.73,-38.91,0,*67
1485496851.87,1221,8.75,73948.3,-7.83,-38.73,-38.91,0,*60
1485496853.14,1222,8.75,73948.0,-7.85,-38.67,-38.91,0,*60
1485496854.4,1223,8.75,73952.5,-7.85,-38.67,-38.85,0,*64
1485496855.66,1224,8.75,73948.3,-7.85,-38.29,-38.43,0,*63
1485496856.91,1225,8.75,73952.8,-7.85,-38.43,-38.67,0,*68
1485496858.17,1226,8.75,73948.3,-7.85,-38.23,-38.43,0,*6B
1485496859.4,1227,8.75,73950.5,-7.85,-38.55,-38.85,0,*61
1485496860.66,1228,8.75,73954.3,-7.85,-38.43,-38.67,0,*65
1485496861.91,1229,8.75,73950.3,-7.85,-38.49,-38.73,0,*6B
1485496863.17,1230,8.75,73954.0,-7.85,-38.29,-38.43,0,*66
1485496864.43,1231,8.75,73952.8,-7.83,-38.11,-38.49,0,*60
1485496865.67,1232,8.75,73950.3,-7.83,-38.23,-38.43,0,*68
1485496866.9,1233,8.75,73948.0,-7.83,-38.23,-38.43,0,*69
1485496868.17,1234,8.75,73946.8,-7.83,-38.23,-38.29,0,*62
1485496869.45,1235,8.75,73944.5,-7.81,-38.23,-38.49,0,*67
1485496870.69,1236,8.75,73944.8,-7.83,-38.49,-38.85,0,*6A
1485496871.92,1237,8.75,73948.8,-7.83,-38.67,-38.85,0,*67
1485496873.17,1238,8.75,73946.8,-7.83,-38.49,-38.85,0,*64
1485496874.4,1239,8.75,73948.3,-7.83,-38.67,-38.85,0,*69
1485496875.63,1240,8.75,73946.3,-7.83,-38.67,-38.97,0,*64
1485496876.89,1241,8.75,73944.8,-7.83,-38.49,-38.91,0,*6F
1485496878.13,1242,8.75,73944.8,-7.83,-38.23,-38.43,0,*6F
1485496879.4,1243,8.75,73944.8,-7.83,-38.29,-38.49,0,*6E
1485496880.63,1244,8.81,73952.5,-7.83,-38.43,-38.67,0,*69
1485496881.84,1245,8.75,73950.3,-7.83,-38.55,-38.85,0,*63
1485496883.08,1246,8.75,73946.5,-7.85,-38.55,-38.85,0,*66
1485496884.3,1247,8.75,73948.5,-7.85,-38.55,-38.73,0,*6E
1485496885.53,1248,8.75,73946.5,-7.85,-38.55,-38.73,0,*61
1485496886.76,1249,8.75,73944.3,-7.85,-38.55,-38.85,0,*69
1485496888.02,1250,8.75,73950.8,-7.85,-38.49,-38.85,0,*6C
1485496889.28,1251,8.75,73944.3,-7.85,-38.55,-38.91,0,*65
1485496890.53,1252,8.75,73948.8,-7.85,-38.67,-38.85,0,*62
1485496891.78,1253,8.75,73944.3,-7.85,-38.67,-38.73,0,*6A
1485496893.01,1254,8.75,73948.0,-7.85,-38.55,-38.85,0,*65
1485496894.24,1255,8.75,73948.5,-7.85,-38.55,-38.85,0,*64
1485496895.47,1256,8.81,73954.8,-7.89,-38.55,-38.91,0,*6E
1485496896.72,1257,8.75,73948.8,-7.85,-38.73,-38.91,0,*67
1485496897.95,1258,8.75,73950.0,-7.89,-38.73,-38.91,0,*64
1485496899.17,1259,8.75,73950.0,-7.89,-38.61,-38.91,0,*66
1485496900.41,1260,8.75,73950.3,-7.85,-38.55,-38.85,0,*62
1485496901.64,1261,8.75,73946.8,-7.89,-38.55,-38.79,0,*6C
1485496902.9,1262,8.75,73952.5,-7.85,-38.49,-38.85,0,*6D
1485496904.13,1263,8.75,73944.8,-7.89,-38.49,-38.61,0,*6A
1485496905.33,1264,8.75,73944.8,-7.89,-38.35,-38.73,0,*65
1485496906.58,1265,8.75,73946.8,-7.89,-38.49,-38.79,0,*65
1485496907.82,1266,8.81,73948.5,-7.85,-38.55,-38.85,0,*64
1485496909.07,1267,8.75,73944.8,-7.89,-38.79,-38.91,0,*62
1485496910.3,1268,8.75,73948.8,-7.89,-38.55,-38.79,0,*65
1485496911.56,1269,8.75,73946.0,-7.91,-38.55,-38.79,0,*6D
1485496912.75,1270,8.75,73948.0,-7.89,-38.35,-38.73,0,*60
1485496913.98,1271,8.75,73948.0,-7.89,-38.61,-38.91,0,*6C
1485496915.21,1272,8.75,73950.5,-7.85,-38.55,-38.85,0,*61
1485496916.41,1273,8.75,73948.3,-7.89,-38.35,-38.61,0,*60
1485496917.61,1274,8.75,73948.3,-7.89,-38.35,-38.55,0,*60
1485496918.84,1275,8.75,73950.5,-7.89,-38.61,-38.79,0,*6E
1485496920.04,1276,8.75,73948.8,-7.89,-38.55,-38.73,0,*60
1485496921.27,1277,8.75,73950.0,-7.85,-38.43,-38.73,0,*6A
1485496922.52,1278,8.81,73952.0,-7.85,-38.05,-38.23,0,*62
1485496923.8,1279,8.75,73946.5,-7.85,-38.23,-38.67,0,*67
1485496925.09,1280,8.75,73950.8,-7.85,-38.11,-38.29,0,*6A
1485496926.36,1281,8.81,73952.5,-7.85,-37.93,-38.11,0,*65
1485496927.6,1282,8.75,73950.3,-7.89,-38.17,-38.29,0,*62
1485496928.86,1283,8.75,73954.0,-7.89,-37.81,-37.99,0,*67
1485496930.09,1284,8.75,73952.0,-7.85,-37.57,-37.87,0,*68
1485496931.34,1285,8.75,73954.8,-7.85,-37.75,-38.11,0,*69
1485496932.55,1286,8.75,73956.3,-7.83,-37.75,-38.05,0,*69
1485496933.81,1287,8.75,73948.8,-7.83,-37.93,-38.11,0,*65
1485496935.07,1288,8.75,73948.0,-7.83,-37.93,-38.11,0,*6A
1485496936.31,1289,8.81,73954.0,-7.83,-38.05,-38.23,0,*6A
1485496937.57,1290,8.75,73948.0,-7.83,-38.23,-38.49,0,*6A
1485496938.83,1291,8.75,73948.5,-7.83,-38.23,-38.49,0,*6B
1485496940.07,1292,8.75,73952.5,-7.83,-38.29,-38.43,0,*68
1485496941.33,1293,8.75,73948.3,-7.81,-38.23,-38.43,0,*61
1485496942.59,1294,8.75,73950.5,-7.83,-38.29,-38.49,0,*64
1485496943.83,1295,8.75,73950.3,-7.83,-38.29,-38.55,0,*68
1485496945.05,1296,8.75,73948.8,-7.83,-38.43,-38.55,0,*67
1485496946.3,1297,8.75,73948.8,-7.81,-38.23,-38.35,0,*64
1485496947.56,1298,8.81,73950.3,-7.81,-38.23,-38.61,0,*6A
1485496948.83,1299,8.75,73948.3,-7.83,-38.29,-38.49,0,*69
1485496950.05,1300,8.75,73950.0,-7.81,-38.35,-38.61,0,*6D
1485496951.29,1301,8.75,73944.0,-7.83,-38.49,-38.73,0,*66
1485496952.55,1302,8.75,73946.8,-7.81,-38.43,-38.79,0,*67
1485496953.78,1303,8.75,73950.5,-7.83,-38.43,-38.67,0,*6B
1485496955.06,1304,8.75,73950.0,-7.81,-38.67,-38.91,0,*61
1485496956.3,1305,8.81,73954.3,-7.83,-38.49,-38.85,0,*6B
1485496957.56,1306,8.75,73946.3,-7.81,-38.61,-38.79,0,*63
1485496958.79,1307,8.75,73946.8,-7.83,-38.49,-38.73,0,*60
1485496960.0,1308,8.75,73946.5,-7.83,-38.55,-38.73,0,*62
1485496961.28,1309,8.75,73946.0,-7.81,-38.67,-38.79,0,*6A
1485496962.51,1310,8.75,73952.5,-7.83,-38.11,-38.43,0,*68
1485496963.78,1311,8.75,73948.8,-7.83,-38.11,-38.29,0,*65
1485496964.99,1312,8.75,73952.5,-7.83,-38.43,-38.61,0,*6D
1485496966.25,1313,8.75,73948.8,-7.83,-38.23,-38.49,0,*60
1485496967.48,1314,8.75,73948.5,-7.83,-38.11,-38.43,0,*6C
1485496968.72,1315,8.75,73948.0,-7.81,-37.87,-38.05,0,*6D
1485496969.96,1316,8.81,73954.3,-7.83,-38.05,-38.23,0,*6D
1485496971.21,1317,8.75,73948.0,-7.83,-38.11,-38.49,0,*65
1485496972.44,1318,8.81,73952.5,-7.81,-38.35,-38.61,0,*64
1485496973.73,1319,8.75,73950.3,-7.81,-38.49,-38.79,0,*67
1485496974.94,1320,8.75,73946.5,-7.83,-38.35,-38.61,0,*6D
1485496976.2,1321,8.75,73950.5,-7.83,-38.23,-38.67,0,*6D
1485496977.45,1322,8.75,73950.3,-7.81,-38.67,-38.85,0,*60
1485496978.69,1323,8.75,73948.5,-7.83,-38.49,-38.73,0,*66
1485496979.93,1324,8.75,73948.0,-7.83,-38.49,-38.85,0,*68
1485496981.19,1325,8.75,73944.8,-7.81,-38.23,-38.43,0,*6D
1485496982.43,1326,8.75,73950.0,-7.83,-38.29,-38.55,0,*61
1485496983.63,1327,8.75,73948.8,-7.83,-38.55,-38.73,0,*6F
1485496984.92,1328,8.81,73954.8,-7.81,-38.49,-38.79,0,*65
1485496986.17,1329,8.75,73950.5,-7.81,-38.35,-38.67,0,*60
1485496987.43,1330,8.75,73950.5,-7.81,-38.23,-38.43,0,*69
1485496988.67,1331,8.75,73948.8,-7.83,-38.23,-38.43,0,*6A
1485496989.93,1332,8.75,73950.3,-7.81,-38.17,-38.23,0,*6A
1485496991.16,1333,8.75,73952.8,-7.83,-38.11,-38.43,0,*69
1485496992.4,1334,8.75,73950.5,-7.83,-38.23,-38.43,0,*6F
1485496993.63,1335,8.81,73952.8,-7.81,-38.17,-38.43,0,*6B
1485496994.89,1336,8.75,73952.0,-7.81,-38.43,-38.79,0,*60
1485496996.15,1337,8.75,73948.3,-7.83,-38.29,-38.67,0,*60
1485496997.36,1338,8.75,73952.8,-7.83,-38.55,-38.85,0,*68
1485496998.62,1339,8.75,73950.8,-7.81,-38.35,-38.67,0,*61
1485496999.86,1340,8.75,73950.5,-7.83,-38.29,-38.55,0,*61
1485497001.12,1341,8.81,73954.3,-7.83,-38.23,-38.49,0,*67
1485497002.38,1342,8.75,73950.5,-7.81,-38.43,-38.67,0,*6C
1485497003.63,1343,8.75,73950.5,-7.81,-38.23,-38.61,0,*6D
1485497004.91,1344,8.75,73950.5,-7.81,-38.23,-38.49,0,*60
1485497006.18,1345,8.75,73950.3,-7.83,-38.29,-38.49,0,*69
1485497007.43,1346,8.75,73946.8,-7.81,-38.23,-38.61,0,*68
1485497008.66,1347,8.75,73948.3,-7.81,-38.43,-38.61,0,*6F
1485497009.88,1348,8.75,73948.5,-7.83,-38.43,-38.55,0,*65
1485497011.17,1349,8.75,73948.0,-7.81,-38.49,-38.79,0,*62
1485497012.45,1350,8.75,73944.3,-7.81,-38.49,-38.79,0,*6A
1485497013.71,1351,8.75,73950.0,-7.83,-38.67,-38.91,0,*63
1485497014.92,1352,8.75,73946.8,-7.83,-38.55,-38.85,0,*64
1485497016.18,1353,8.75,73946.5,-7.81,-38.79,-38.85,0,*69
1485497017.42,1354,8.75,73948.8,-7.83,-38.85,-38.91,0,*6A
1485497018.68,1355,8.81,73948.8,-7.83,-38.67,-38.91,0,*67
1485497019.91,1356,8.75,73946.8,-7.83,-38.73,-38.91,0,*61
1485497021.15,1357,8.75,73948.8,-7.83,-38.23,-38.43,0,*6A
1485497022.41,1358,8.75,73948.5,-7.83,-38.23,-38.49,0,*6F
1485497023.69,1359,8.75,73944.3,-7.81,-38.23,-38.49,0,*6C
1485497024.95,1360,8.75,73946.8,-7.81,-38.43,-38.79,0,*63
1485497026.18,1361,8.75,73946.3,-7.83,-38.67,-38.85,0,*65
1485497027.39,1362,8.75,73946.8,-7.83,-38.55,-38.85,0,*67
1485497028.6,1363,8.75,73946.3,-7.83,-38.73,-38.85,0,*62
1485497029.86,1364,8.75,73944.3,-7.83,-38.67,-38.91,0,*65
1485497031.09,1365,8.75,73946.8,-7.83,-38.73,-38.91,0,*61
1485497032.35,1366,8.75,73946.8,-7.83,-38.67,-38.91,0,*67
1485497033.6,1367,8.81,73948.3,-7.83,-38.67,-39.03,0,*6C
1485497034.88,1368,8.75,73948.5,-7.85,-38.67,-38.91,0,*6F
1485497036.13,1369,8.75,73950.5,-7.85,-38.73,-38.91,0,*6B
1485497037.37,1370,8.75,73948.3,-7.85,-38.43,-38.55,0,*68
1485497038.6,1371,8.75,73946.3,-7.85,-38.55,-38.85,0,*63
1485497039.86,1372,8.75,73950.3,-7.85,-38.49,-38.73,0,*64
1485497041.11,1373,8.75,73950.0,-7.85,-38.67,-38.85,0,*60
1485497042.36,1374,8.75,73952.5,-7.85,-38.73,-38.91,0,*67
1485497043.64,1375,8.75,73948.0,-7.85,-38.67,-38.91,0,*63
1485497044.9,1376,8.75,73948.5,-7.85,-38.23,-38.43,0,*6F
1485497046.13,1377,8.75,73948.5,-7.89,-38.29,-38.61,0,*68
1485497047.37,1378,8.81,73954.8,-7.85,-38.67,-38.73,0,*62
1485497048.65,1379,8.75,73950.0,-7.85,-38.67,-38.91,0,*6F
1485497049.91,1380,8.75,73948.3,-7.85,-38.43,-38.67,0,*66
1485497051.17,1381,8.75,73950.0,-7.85,-38.29,-38.55,0,*6A
1485497052.45,1382,8.75,73944.3,-7.85,-38.29,-38.67,0,*68
1485497053.73,1383,8.75,73948.0,-7.85,-38.29,-38.67,0,*69
1485497054.99,1384,8.81,73948.3,-7.85,-38.29,-38.55,0,*6F
1485497056.22,1385,8.75,73946.0,-7.85,-38.43,-38.85,0,*6F
1485497057.48,1386,8.75,73946.8,-7.85,-38.73,-38.91,0,*6A
1485497058.73,1387,8.75,73944.5,-7.85,-38.73,-38.91,0,*6B
1485497059.96,1388,8.81,73952.5,-7.89,-38.79,-38.97,0,*64
1485497061.24,1389,8.81,73948.8,-7.85,-38.67,-38.91,0,*60
1485497062.46,1390,8.75,73948.0,-7.89,-38.55,-38.91,0,*65
1485497063.7,1391,8.75,73948.0,-7.85,-38.55,-38.85,0,*6D
1485497064.9,1392,8.75,73950.8,-7.89,-38.55,-38.85,0,*62
1485497066.16,1393,8.81,73950.8,-7.85,-38.29,-38.55,0,*69
1485497067.42,1394,8.75,73948.3,-7.89,-38.49,-38.79,0,*6A
1485497068.65,1395,8.75,73950.8,-7.85,-38.73,-38.85,0,*6D
1485497069.88,1396,8.75,73948.3,-7.89,-38.49,-38.73,0,*62
1485497071.1,1397,8.75,73948.3,-7.89,-38.55,-38.91,0,*62
1485497072.36,1398,8.75,73948.0,-7.91,-38.73,-38.79,0,*66
1485497073.59,1399,8.75,73948.0,-7.89,-38.55,-38.79,0,*6A
1485497074.82,1400,8.75,73948.3,-7.89,-38.49,-38.61,0,*69
1485497076.02,1401,8.75,73950.0,-7.89,-38.35,-38.55,0,*64
1485497077.22,1402,8.75,73948.0,-7.89,-38.35,-38.61,0,*60
1485497078.45,1403,8.81,73950.5,-7.89,-38.61,-38.91,0,*6F
1485497079.68,1404,8.75,73950.5,-7.89,-38.91,-39.09,0,*67
1485497080.91,1405,8.75,73946.5,-7.89,-38.85,-39.03,0,*69
1485497082.11,1406,8.75,73948.5,-7.89,-38.73,-38.97,0,*6F
1485497083.36,1407,8.75,73952.3,-7.89,-38.79,-38.91,0,*62
1485497084.56,1408,8.75,73948.5,-7.89,-38.55,-38.73,0,*6F
1485497085.82,1409,8.75,73950.8,-7.91,-38.61,-38.91,0,*6C
1485497087.07,1410,8.75,73948.8,-7.91,-38.49,-38.73,0,*62
1485497088.27,1411,8.75,73950.3,-7.89,-38.35,-38.55,0,*65
1485497089.53,1412,8.75,73950.0,-7.89,-38.11,-38.29,0,*6B
1485497090.78,1413,8.75,73956.5,-7.89,-38.11,-38.29,0,*6A
1485497092.04,1414,8.75,73952.8,-7.89,-37.81,-37.93,0,*65
1485497093.27,1415,8.75,73952.5,-7.89,-37.99,-38.17,0,*6E
1485497094.53,1416,8.75,73952.0,-7.89,-37.81,-38.11,0,*62
1485497095.78,1417,8.75,73948.0,-7.85,-37.75,-37.93,0,*61
1485497097.06,1418,8.75,73948.0,-7.85,-37.93,-38.23,0,*62
1485497098.29,1419,8.75,73950.5,-7.85,-37.75,-38.05,0,*6F
1485497099.51,1420,8.75,73948.3,-7.89,-38.11,-38.17,0,*67
1485497100.77,1421,8.75,73950.0,-7.85,-38.05,-38.29,0,*62
1485497102.06,1422,8.75,73946.3,-7.85,-38.23,-38.29,0,*65
1485497103.31,1423,8.75,73946.8,-7.85,-38.05,-38.11,0,*6B
1485497104.57,1424,8.75,73946.3,-7.85,-38.05,-38.29,0,*67
1485497105.8,1425,8.75,73948.0,-7.83,-38.05,-38.11,0,*6B
1485497107.04,1426,8.75,73948.0,-7.83,-38.05,-38.49,0,*65
1485497108.27,1427,8.75,73948.5,-7.83,-38.23,-38.43,0,*6A
1485497109.49,1428,8.75,73946.8,-7.83,-37.87,-38.05,0,*66
1485497110.72,1429,8.75,73946.0,-7.83,-37.75,-37.93,0,*6A
1485497111.93,1430,8.75,73944.5,-7.83,-37.57,-37.87,0,*67
1485497113.2,1431,8.75,73948.3,-7.81,-37.87,-37.99,0,*66
1485497114.43,1432,8.75,73946.8,-7.81,-38.05,-38.17,0,*69
1485497115.69,1433,8.75,73948.3,-7.81,-38.23,-38.43,0,*6D
1485497116.9,1434,8.75,73950.3,-7.83,-38.55,-38.85,0,*63
1485497118.15,1435,8.75,73946.3,-7.81,-38.43,-38.67,0,*6B
1485497119.39,1436,8.75,73948.0,-7.81,-38.17,-38.35,0,*6E
1485497120.62,1437,8.75,73946.8,-7.81,-38.17,-38.43,0,*6E
1485497121.88,1438,8.75,73946.0,-7.81,-38.35,-38.79,0,*68
1485497123.14,1439,8.75,73946.0,-7.81,-38.49,-38.85,0,*61
1485497124.37,1440,8.75,73942.0,-7.81,-38.61,-38.85,0,*65
1485497125.64,1441,8.75,73944.5,-7.83,-38.49,-38.67,0,*60
1485497126.87,1442,8.75,73946.8,-7.83,-38.43,-38.67,0,*69
1485497128.08,1443,8.75,73946.0,-7.83,-38.55,-38.85,0,*63
1485497129.34,1444,8.75,73944.8,-7.83,-38.67,-38.91,0,*60
1485497130.6,1445,8.75,73946.3,-7.81,-38.43,-38.79,0,*63
1485497131.81,1446,8.75,73946.8,-7.83,-38.73,-38.85,0,*62
1485497133.01,1447,8.75,73944.5,-7.83,-38.55,-38.73,0,*6E
1485497134.26,1448,8.75,73946.5,-7.83,-38.49,-38.85,0,*65
1485497135.46,1449,8.75,73948.8,-7.83,-38.55,-38.73,0,*60
1485497136.71,1450,8.75,73944.5,-7.81,-38.67,-38.85,0,*62
1485497137.92,1451,8.75,73946.0,-7.83,-38.55,-38.73,0,*69
1485497139.13,1452,8.75,73950.0,-7.83,-38.55,-38.85,0,*63
1485497140.36,1453,8.75,73944.3,-7.83,-38.73,-38.91,0,*63
1485497141.59,1454,8.75,73944.5,-7.83,-38.73,-39.03,0,*6E
1485497142.83,1455,8.75,73944.0,-7.83,-38.85,-38.91,0,*6C
1485497144.08,1456,8.75,73940.3,-7.83,-38.49,-38.85,0,*6A
1485497145.33,1457,8.75,73946.0,-7.85,-38.43,-38.67,0,*6B
1485497146.58,1458,8.75,73946.0,-7.85,-38.43,-38.67,0,*64
1485497147.82,1459,8.75,73942.0,-7.85,-38.73,-38.85,0,*6A
1485497149.06,1460,8.75,73946.0,-7.85,-38.67,-38.73,0,*6C
1485497150.32,1461,8.75,73946.8,-7.85,-38.67,-38.85,0,*64
1485497151.59,1462,8.75,73948.3,-7.85,-38.67,-38.91,0,*62
1485497152.87,1463,8.75,73944.5,-7.85,-38.67,-38.91,0,*63
1485497154.1,1464,8.75,73944.8,-7.89,-38.79,-38.97,0,*61
1485497155.35,1465,8.75,73946.8,-7.85,-38.55,-39.03,0,*6E
1485497156.63,1466,8.75,73944.8,-7.85,-38.67,-38.91,0,*66
1485497157.86,1467,8.75,73946.8,-7.89,-38.55,-38.79,0,*6C
1485497159.08,1468,8.75,73944.3,-7.89,-38.61,-38.91,0,*62
1485497160.31,1469,8.75,73950.5,-7.89,-38.49,-38.73,0,*65
1485497161.52,1470,8.75,73946.8,-7.89,-38.43,-38.55,0,*63
1485497162.78,1471,8.75,73946.5,-7.85,-38.29,-38.55,0,*62
1485497164.03,1472,8.75,73948.8,-7.85,-38.43,-38.67,0,*6C
1485497165.26,1473,8.75,73948.0,-7.89,-38.55,-38.79,0,*69
1485497166.52,1474,8.75,73948.5,-7.85,-38.55,-38.91,0,*64
1485497167.71,1475,8.75,73948.5,-7.89,-38.55,-38.73,0,*65
1485497169.0,1476,8.75,73950.5,-7.85,-38.29,-38.49,0,*68
1485497170.26,1477,8.75,73950.5,-7.85,-38.43,-38.67,0,*69
1485497171.51,1478,8.75,73944.3,-7.89,-38.29,-38.67,0,*66
1485497172.74,1479,8.75,73948.3,-7.85,-38.43,-38.55,0,*66
1485497173.97,1480,8.75,73948.8,-7.85,-38.55,-38.85,0,*6A
1485497175.2,1481,8.75,73946.5,-7.89,-38.55,-38.79,0,*64
1485497176.43,1482,8.75,73948.3,-7.89,-38.55,-38.79,0,*67
1485497177.63,1483,8.75,73950.8,-7.89,-38.35,-38.61,0,*69
1485497178.86,1484,8.75,73946.5,-7.89,-38.49,-38.73,0,*66
1485497180.14,1485,8.75,73948.3,-7.85,-38.23,-38.49,0,*6E
1485497181.42,1486,8.75,73944.5,-7.85,-38.23,-38.49,0,*6D
1485497182.7,1487,8.75,73948.5,-7.85,-38.29,-38.67,0,*6A
1485497183.97,1488,8.75,73948.0,-7.85,-38.29,-38.55,0,*64
1485497185.22,1489,8.75,73950.5,-7.85,-38.11,-38.43,0,*69
1485497186.47,1490,8.75,73948.3,-7.85,-37.75,-37.93,0,*6E
1485497187.7,1491,8.75,73948.8,-7.89,-37.99,-38.17,0,*62
1485497188.96,1492,8.75,73948.0,-7.85,-38.05,-38.29,0,*6A
1485497190.24,1493,8.75,73954.0,-7.85,-38.23,-38.49,0,*69
1485497191.52,1494,8.75,73950.0,-7.85,-38.11,-38.23,0,*63
1485497192.78,1495,8.75,73954.3,-7.85,-38.23,-38.43,0,*65
1485497194.04,1496,8.75,73950.8,-7.85,-38.23,-38.43,0,*66
1485497195.3,1497,8.75,73950.0,-7.85,-38.29,-38.55,0,*6A
1485497196.55,1498,8.75,73948.8,-7.85,-38.43,-38.67,0,*68
1485497197.82,1499,8.75,73950.3,-7.85,-38.49,-38.85,0,*6F
1485497199.07,1500,8.75,73946.0,-7.85,-38.43,-38.67,0,*68
1485497200.3,1501,8.75,73948.0,-7.85,-38.55,-38.85,0,*62
1485497201.59,1502,8.75,73948.5,-7.85,-38.23,-38.29,0,*66
1485497202.85,1503,8.75,73948.8,-7.85,-38.29,-38.55,0,*66
1485497204.11,1504,8.75,73948.3,-7.85,-38.29,-38.55,0,*61
1485497205.36,1505,8.81,73954.3,-7.85,-38.43,-38.67,0,*6D
1485497206.65,1506,8.75,73952.8,-7.85,-38.23,-38.29,0,*62
1485497207.88,1507,8.75,73954.8,-7.85,-37.75,-37.87,0,*64
1485497209.14,1508,8.75,73950.8,-7.85,-37.39,-37.75,0,*6E
1485497210.38,1509,8.75,73952.3,-7.83,-37.21,-37.57,0,*60
1485497211.59,1510,8.75,73948.3,-7.83,-37.33,-37.57,0,*6B
1485497212.85,1511,8.75,73946.8,-7.81,-37.81,-38.05,0,*69
1485497214.13,1512,8.75,73950.3,-7.81,-37.69,-37.99,0,*66
1485497215.39,1513,8.81,73950.5,-7.81,-37.81,-38.05,0,*6B
1485497216.6,1514,8.75,73950.3,-7.79,-37.87,-38.05,0,*6D
1485497217.83,1515,8.75,73950.0,-7.81,-37.87,-38.05,0,*6B
1485497219.04,1516,8.75,73948.5,-7.79,-37.87,-38.17,0,*6C
1485497220.25,1517,8.75,73952.0,-7.79,-37.87,-38.17,0,*6D
1485497221.47,1518,8.81,73954.3,-7.79,-37.99,-38.05,0,*6E
1485497222.73,1519,8.75,73950.8,-7.77,-37.93,-38.17,0,*68
1485497223.98,1520,8.75,73952.3,-7.77,-37.75,-37.93,0,*69
1485497225.26,1521,8.75,73950.3,-7.77,-37.63,-37.81,0,*6C
1485497226.54,1522,8.75,73950.5,-7.77,-37.93,-38.29,0,*6D
1485497227.75,1523,8.75,73954.3,-7.79,-38.17,-38.35,0,*6C
1485497228.97,1524,8.75,73954.0,-7.79,-38.35,-38.67,0,*6C
1485497230.2,1525,8.81,73954.3,-7.79,-38.43,-38.67,0,*6C
1485497231.42,1526,8.75,73948.8,-7.77,-38.43,-38.73,0,*64
1485497232.68,1527,8.75,73952.8,-7.77,-38.29,-38.61,0,*6A
1485497233.91,1528,8.75,73950.3,-7.77,-38.17,-38.43,0,*68
1485497235.13,1529,8.75,73950.8,-7.79,-38.23,-38.61,0,*60
1485497236.34,1530,8.75,73948.3,-7.79,-38.35,-38.61,0,*6F
1485497237.59,1531,8.75,73948.3,-7.79,-38.29,-38.79,0,*6A
1485497238.82,1532,8.75,73950.5,-7.79,-38.35,-38.49,0,*67
1485497240.02,1533,8.81,73950.3,-7.79,-38.35,-38.61,0,*6C
1485497241.25,1534,8.81,73952.3,-7.79,-38.43,-38.79,0,*63
1485497242.48,1535,8.75,73948.5,-7.79,-38.35,-38.79,0,*63
1485497243.71,1536,8.75,73950.3,-7.79,-38.35,-38.67,0,*6F
1485497244.93,1537,8.75,73948.5,-7.79,-38.43,-38.67,0,*6F
1485497246.18,1538,8.75,73948.3,-7.81,-38.67,-38.97,0,*6E
1485497247.39,1539,8.75,73946.5,-7.79,-38.61,-38.85,0,*6D
1485497248.65,1540,8.75,73950.3,-7.77,-38.55,-38.79,0,*69
1485497249.9,1541,8.75,73948.8,-7.79,-38.49,-38.79,0,*6B
1485497251.16,1542,8.81,73952.0,-7.81,-38.67,-38.85,0,*60
1485497252.41,1543,8.75,73950.0,-7.81,-38.43,-38.67,0,*6B
1485497253.65,1544,8.81,73954.8,-7.81,-38.17,-38.35,0,*6A
1485497254.88,1545,8.75,73952.3,-7.81,-38.17,-38.43,0,*6A
1485497256.14,1546,8.75,73952.3,-7.81,-38.23,-38.35,0,*6F
1485497257.41,1547,8.75,73954.5,-7.83,-38.29,-38.49,0,*6D
1485497258.64,1548,8.75,73956.5,-7.81,-38.05,-38.35,0,*65
1485497259.84,1549,8.75,73956.3,-7.79,-38.05,-38.35,0,*63
1485497261.05,1550,8.75,73958.0,-7.79,-38.05,-38.17,0,*6B
1485497262.34,1551,8.75,73956.8,-7.77,-37.81,-37.99,0,*6E
1485497263.56,1552,8.75,73958.3,-7.77,-37.57,-37.75,0,*64
1485497264.79,1553,8.75,73958.8,-7.77,-37.57,-37.75,0,*65
1485497266.02,1554,8.75,73956.8,-7.79,-37.33,-37.51,0,*68
1485497267.25,1555,8.75,73958.3,-7.79,-37.27,-37.69,0,*67
1485497268.45,1556,8.75,73954.3,-7.75,-37.57,-37.57,0,*62
1485497269.71,1557,8.75,73952.0,-7.75,-37.81,-37.99,0,*6A
1485497270.97,1558,8.75,73950.5,-7.75,-37.93,-37.99,0,*66
1485497272.2,1559,8.75,73952.3,-7.73,-37.75,-38.05,0,*63
1485497273.42,1560,8.75,73954.3,-7.75,-37.75,-37.93,0,*6F
1485497274.68,1561,8.75,73952.8,-7.73,-37.51,-37.75,0,*66
1485497275.93,1562,8.75,73952.5,-7.75,-37.63,-37.81,0,*69
1485497277.22,1563,8.75,73956.5,-7.73,-37.93,-38.23,0,*66
1485497278.48,1564,8.75,73954.8,-7.75,-37.81,-37.99,0,*6A
1485497279.74,1565,8.75,73954.8,-7.73,-37.87,-38.11,0,*64
1485497280.99,1566,8.75,73952.3,-7.73,-37.87,-38.11,0,*67
1485497282.24,1567,8.75,73956.5,-7.73,-37.75,-37.93,0,*6E
1485497283.5,1568,8.75,73954.3,-7.73,-37.87,-38.11,0,*69
1485497284.76,1569,8.75,73950.8,-7.73,-37.69,-37.87,0,*68
1485497286.0,1570,8.75,73952.3,-7.71,-37.69,-37.69,0,*62
1485497287.23,1571,8.75,73948.3,-7.71,-37.51,-37.75,0,*65
1485497288.46,1572,8.75,73948.5,-7.71,-37.39,-37.57,0,*68
1485497289.68,1573,8.75,73946.8,-7.71,-37.33,-37.69,0,*6E
1485497290.9,1574,8.75,73944.0,-7.71,-37.51,-37.57,0,*60
1485497292.16,1575,8.75,73946.3,-7.69,-37.69,-37.87,0,*6E
1485497293.39,1576,8.75,73940.5,-7.67,-37.99,-38.17,0,*6A
1485497294.6,1577,8.75,73946.5,-7.67,-38.17,-38.61,0,*63
1485497295.82,1578,8.75,73946.8,-7.69,-38.05,-38.43,0,*61
1485497297.03,1579,8.75,73944.5,-7.67,-38.17,-38.43,0,*6D
1485497298.32,1580,8.75,73946.0,-7.69,-37.81,-37.99,0,*6D
1485497299.57,1581,8.75,73944.8,-7.71,-37.93,-38.11,0,*69
1485497300.78,1582,8.75,73946.3,-7.67,-38.17,-38.43,0,*69
1485497302.0,1583,8.75,73948.0,-7.67,-37.99,-38.05,0,*63
1485497303.27,1584,8.75,73950.8,-7.67,-37.81,-37.99,0,*67
1485497304.47,1585,8.75,73946.8,-7.67,-38.17,-38.43,0,*6E
1485497305.72,1586,8.75,73948.0,-7.65,-37.75,-37.93,0,*66
1485497306.98,1587,8.75,73948.3,-7.67,-37.99,-38.23,0,*63
1485497308.24,1588,8.75,73948.8,-7.67,-37.99,-38.23,0,*6C
1485497309.47,1589,8.75,73950.3,-7.67,-38.05,-38.23,0,*67
1485497310.72,1590,8.75,73948.3,-7.65,-37.99,-38.17,0,*60
1485497311.95,1591,8.75,73952.0,-7.67,-38.23,-38.43,0,*6C
1485497313.19,1592,8.75,73946.5,-7.67,-38.17,-38.23,0,*6E
1485497314.42,1593,8.75,73948.0,-7.67,-38.05,-38.29,0,*66